Regional Weather Roundup
Issued by NWS Albany, NY

Home | Current Version | Previous Version | Text Only | Print | Product List | Glossary On
Versions: 1 2 3 4 5 6 7 8 9 10 11 12 13 14 15 16 17 18 19 20 21 22 23 24 25 26 27 28 29 30 31 32 33 34 35 36 37 38 39 40 41 42 43 44 45 46 47 48 49 50
000
ASUS41 KALY 262310
RWRALY

NEW YORK STATE HOURLY WEATHER ROUNDUP
NATIONAL WEATHER SERVICE ALBANY NY
700 PM EDT FRI AUG 26 2016

NOTE: "FAIR" INDICATES FEW OR NO CLOUDS BELOW 12,000 FEET WITH NO
SIGNIFICANT WEATHER AND/OR NO OBSTRUCTIONS TO VISIBILITY.

NYZ032-033-038>043-046>054-057>066-NYZ062>081-082-084-270000-
EAST


CITY           SKY/WX    TMP DP  RH WIND       PRES   REMARKS
ALBANY         PTCLDY    81  62  52 W14       30.02R
GLENS FALLS    CLEAR     81  61  50 NW6       30.01R
POUGHKEEPSIE   CLEAR     84  63  49 NW5       30.00R
NEWBURGH       CLEAR     82  70  65 NW7       30.04R
MONTGOMERY     CLEAR     83  66  56 W7        30.03R HAZE
WHITE PLAINS   PTCLDY    85  66  53 NW6       30.01S
ISLIP          PTCLDY    86  67  52 NW9       29.98R
NEW YORK CITY  PTCLDY    88  66  48 NW14      29.99R HX  90
CENTRAL PARK     N/A     86  61  42 MISG        N/A
$$

NYZ005>009-017-018-044>046-055-056-270000-
CENTRAL


CITY           SKY/WX    TMP DP  RH WIND       PRES   REMARKS
FULTON         CLEAR     76  63  64 W6        30.07S
SYRACUSE       PTCLDY    78  65  63 NW9       30.06S
ROME           CLEAR     77  64  64 NW7       30.07S
ELMIRA         CLEAR     80  69  69 NW3       30.07S
BINGHAMTON     CLEAR     77  63  61 NE3       30.11F
MONTICELLO     CLEAR     79  63  57 NW7       30.11R
$$

NYZ026>034-041>043-087-270000-
NORTH


CITY           SKY/WX    TMP DP  RH WIND       PRES   REMARKS
WATERTOWN      CLEAR     76  60  57 SW8       30.05S
FORT DRUM      NOT AVBL
MASSENA        PTCLDY    78  63  59 W3        30.02R
SARANAC LAKE   CLEAR     73  54  51 W3        30.08R
PLATTSBURGH    CLEAR     77  60  55 NW3       30.01R
$$

NYZ001>004-010>016-019>021-085-270000-
WEST


CITY           SKY/WX    TMP DP  RH WIND       PRES   REMARKS
NIAGARA FALLS  PTCLDY    80  65  59 SW12      30.08S
BUFFALO        PTCLDY    77  64  64 SW15      30.10S
DUNKIRK        SUNNY     75  64  68 SW9       30.12S
JAMESTOWN      SUNNY     73  57  56 NW7       30.17S
WELLSVILLE     CLEAR     77  61  57 NW6       30.18R
ROCHESTER      PTCLDY    82  60  47 NW7       30.08R
PENN YAN       MOCLDY    82  66  58 N8        30.10R
$$

             KEY
       WCI = WIND CHILL INDEX
       VSB = VISIBILITY
       HX  = HEAT INDEX
$$



USA.gov is the U.S. government's official web portal to all federal, state and local government web resources and services.